星链-4640 (STARLINK-4640 )

导读

STARLINK-4640是美国SpaceX公司星链项目的低轨通信卫星,于2022年9月5日发射升空,属于星链第二代星座中的V1.5型卫星。它配备激光星间链路模块,可实现卫星间直接通信,降低对地面基站的依赖,助力构建全球覆盖的高速宽带网络,为偏远地区、海洋等区域提供互联网接入服务,是目前星链星座中占比最高的卫星型号之一。

基本信息
目录编号:
53728
目录名称:
STARLINK-4640
国际标识:
2022-107AE
轨道中心:
EARTH
卫星名称:
星链-4640
卫星全名:
星链-4640 (STARLINK-4640 )
卫星状态:
在轨 (已飞行1460 天)
发射日期:
2022-09-05 UTC
国别 :
美国 (US)
星等 :
--
轨道信息
数据来源 国际轨道数据
星历时间: 2026-09-04T02:08:16+0800
10小时前
查看轨道信息
半长轴: 6840.88km
偏心率: 0.0001429
轨道倾角: 53.160°
近地点辐角 81.701°
升交点赤经 161.697°
平近点角 278.416°
近地点: 461.765km
远地点: 463.721km
周期: 93.849分钟
每日圈数: 15.343869
详细信息
固有亮度:
5
最大亮度:
2.5
卫星平台:
Starlink v1.5
覆盖范围:
全球
运营商:
太空探索技术公司
运营商所在国:
美国
制造商(研发单位):
太空探索技术公司
制造商所在国:
美国
使用方式:
暂无
卫星简介
星链(Starlink)计划是由太空探索技术公司(SpaceX)提出的一个巨型低轨卫星互联网星座项目,计划在2019年至2024年间在太空搭建由约1.2万颗卫星组成的“星链”网络,其中1584颗将部署在地球上空550千米处的近地轨道,并从2020年开始工作。该卫星仍在工作。
2D轨道图
3D轨道图
轨道高度分析图
轨道倾角分析图
轨道综合分析图
查看轨道综合分析图
交会数据列表
事件ID 空间交会对象 最接近时刻(TCA) 交会距离 交会风险概率(CRP) 交会风险指数(CRI) 操作
CDM_260904-064305-372806-449221
2026-09-04T
06:43:25+0000
1.013 km
极远距离
2.237843E-5 中风险 0.62
CDM_260904-050905-372806-449221
2026-09-04T
05:09:37+0000
1.021 km
极远距离
2.182582E-5 中风险 0.62
CDM_260905-022904-299205-372822
2026-09-05T
02:29:28+0000
2.329 km
极远距离
1.906252E-6 低风险 0.41
CDM_260904-033505-372806-449221
2026-09-04T
03:35:50+0000
2.678 km
极远距离
1.383903E-6 低风险 0.38
CDM_260902-224205-299005-372821
2026-09-02T
22:42:08+0000
2.680 km
极远距离
1.368076E-6 低风险 0.38
CDM_260904-081705-372806-449221
2026-09-04T
08:17:12+0000
2.739 km
极远距离
1.338163E-6 低风险 0.38
CDM_260903-035905-357005-372821
2026-09-03T
03:59:55+0000
2.904 km
极远距离
1.239147E-6 低风险 0.37